Theta_e
312 311 311 310 309 310 311 310 310 307 305 307 306 308 309 310 306 304 306 304 305 307 306 304 302 300 297 296 296 296 295 294 294 294 294 294 294 295 294 294 292 291 291 291
310 312 309 309 308 309 308 309 307 306 305 304 305 306 307 307 309 308 306 304 305 305 304 304 302 299 298 297 296 295 294 293 293 293 293 293 294 295 294 292 291 291 291 291
309 311 307 309 308 308 307 307 307 308 304 302 302 303 303 304 305 307 307 306 307 307 306 304 302 300 298 296 295 295 294 292 292 292 292 292 293 293 293 292 292 291 291 290
309 308 309 309 309 307 310 305 306 306 306 308 303 310 306 305 306 305 307 307 309 308 307 304 303 301 298 296 295 294 292 291 291 291 292 292 292 292 291 290 290 290 289 288
311 306 307 309 308 306 309 304 304 304 304 302 303 304 307 301 306 308 307 309 309 308 308 307 305 303 301 296 295 294 292 291 291 291 291 291 291 291 291 290 289 288 288 288
308 306 305 308 303 304 302 304 302 298 300 305 307 307 305 304 305 306 306 309 309 309 308 306 303 300 299 297 294 293 291 291 291 291 291 290 291 290 290 289 288 287 288 288
310 306 304 305 307 304 304 307 310 308 306 311 300 302 309 306 303 305 308 309 308 306 306 305 302 300 298 297 294 293 291 291 291 291 291 290 290 289 289 288 287 287 288 287
311 311 304 303 307 308 303 307 310 307 307 309 299 305 309 303 306 306 306 308 305 306 305 304 303 301 299 297 294 293 291 291 291 291 290 290 289 288 288 287 287 287 287 286
309 310 302 301 302 304 304 306 305 306 288 301 308 305 304 302 301 300 301 301 303 304 306 306 304 301 298 297 294 293 291 291 291 290 290 290 288 287 287 287 287 287 286 286
311 312 302 299 299 298 302 301 306 304 307 304 308 308 309 307 306 304 301 301 304 306 306 307 305 301 298 296 294 292 291 291 290 290 290 289 288 287 287 287 287 286 285 285
308 311 307 301 301 302 300 301 301 303 304 307 308 310 304 306 304 305 303 305 305 307 308 308 306 303 299 296 293 292 291 290 290 289 289 288 287 286 286 286 286 285 285 285
306 309 313 310 298 296 300 303 304 307 306 300 302 310 306 306 303 301 304 305 306 307 307 306 305 303 299 294 292 291 290 290 289 289 288 287 286 286 286 286 286 285 285 284
305 308 311 311 302 299 300 299 301 301 302 307 306 310 305 301 302 303 303 305 305 306 306 305 302 301 298 294 292 291 290 289 289 288 287 287 286 286 286 285 285 285 284 284
308 308 312 311 309 303 302 299 302 304 308 308 307 308 308 309 306 304 304 306 304 304 305 303 301 300 296 293 291 290 289 288 288 287 286 286 286 286 286 285 285 284 284 282
306 310 310 311 310 306 304 304 303 303 305 307 308 307 308 308 307 307 307 307 306 305 306 304 302 299 295 292 290 289 289 288 288 287 286 286 286 286 285 285 284 283 282 281
301 309 309 309 308 308 308 306 308 306 305 305 306 306 307 307 307 307 307 307 306 305 305 305 304 299 295 292 290 289 288 288 287 286 286 286 285 285 285 284 283 282 281 280
301 304 303 310 308 306 306 307 308 308 308 308 308 308 308 307 306 306 306 306 306 305 305 305 304 301 295 291 290 289 288 287 286 285 285 285 285 285 284 283 282 281 280 280
305 303 306 309 307 309 308 306 305 306 307 307 307 308 308 307 308 308 307 307 306 306 307 305 302 297 292 290 289 288 287 286 285 285 285 285 285 284 283 281 280 279 279 279
306 307 308 309 310 309 308 307 304 304 306 306 307 307 307 307 305 305 306 307 307 306 305 303 300 296 292 289 288 287 286 285 285 285 285 285 284 283 281 279 279 278 278 279
307 306 308 310 310 311 308 307 306 304 307 307 307 307 307 306 305 307 307 306 307 304 301 300 297 293 289 288 287 286 285 285 285 285 285 284 283 281 280 278 277 277 277 278
304 308 309 309 311 310 307 307 303 306 309 309 306 306 305 305 306 307 304 304 303 300 298 295 293 290 288 287 286 285 285 285 285 285 284 283 282 280 278 277 276 276 277 277
309 307 308 309 310 310 306 305 306 308 309 309 308 306 306 307 307 307 306 302 300 298 293 291 290 288 286 286 285 285 285 285 285 285 283 281 280 279 277 276 276 276 276 277
311 309 311 309 309 304 305 307 308 308 308 309 307 307 307 306 307 307 303 298 297 294 291 288 288 286 285 285 284 285 285 285 285 284 282 280 279 277 276 276 275 275 275 275
307 308 309 309 308 304 303 307 308 308 307 308 307 308 307 306 306 302 299 296 292 290 288 287 286 286 285 284 285 285 285 285 284 283 281 279 278 277 276 275 274 274 274 274
309 306 308 308 308 307 308 308 308 308 307 307 307 306 306 305 305 303 300 296 292 289 288 286 286 286 285 284 284 284 285 284 283 282 280 279 277 277 275 273 273 273 273 271
307 309 310 311 308 308 308 309 309 308 308 308 307 305 304 304 304 301 298 295 292 290 287 285 285 285 285 284 284 284 283 282 282 280 279 277 277 276 274 273 273 272 273 273
Wind_Speed
1 2 8 12 8 2 3 4 7 4 4 4 9 17 20 31 22 28 35 34 37 42 41 42 42 40 37 34 32 28 23 20 17 15 12 9 9 12 15 18 19 21 23 26
3 11 9 5 4 4 3 3 7 7 2 6 8 18 15 17 26 27 33 31 37 35 37 39 44 44 44 40 35 31 26 22 18 15 13 12 11 13 17 18 20 23 25 27
8 4 6 7 4 6 5 6 5 8 4 4 7 9 7 7 15 30 32 34 31 32 32 35 41 49 47 44 39 33 28 23 19 16 14 13 13 16 18 20 21 23 26 27
7 3 6 4 6 8 5 6 3 2 2 4 3 15 4 7 10 9 23 25 29 29 28 30 34 46 51 48 40 33 29 25 21 18 15 14 16 18 21 24 25 26 26 28
7 7 5 5 8 9 7 3 4 1 3 3 4 5 4 3 8 18 9 21 22 22 22 25 29 34 48 49 43 36 30 27 23 19 16 16 17 20 23 25 27 27 29 31
5 0 6 6 3 1 5 4 4 3 2 2 8 10 5 6 9 8 11 25 17 15 16 20 24 28 38 48 43 37 33 29 25 20 18 17 19 22 24 26 28 29 32 34
1 5 3 4 4 3 3 5 4 5 2 9 5 4 13 6 10 12 14 22 15 15 17 19 23 28 34 43 47 42 37 32 27 23 20 18 20 22 25 26 29 31 34 34
5 8 9 6 7 7 6 8 6 9 5 20 4 9 10 16 23 21 22 27 23 18 16 19 21 26 30 37 49 44 38 33 29 24 20 18 20 22 24 25 28 32 34 35
7 9 2 1 2 3 5 6 3 2 2 5 6 13 6 6 12 5 22 22 23 20 19 19 21 26 30 35 49 46 38 33 30 25 20 19 20 22 24 25 28 32 33 35
2 5 1 3 3 0 5 4 3 1 3 7 17 28 18 11 15 11 11 24 30 21 17 18 23 25 29 34 45 43 38 34 29 23 20 20 20 22 23 25 28 30 32 34
5 5 3 2 9 12 3 3 1 2 4 6 13 16 5 8 10 12 12 21 18 15 16 20 22 24 28 33 45 44 39 34 27 22 20 19 20 21 22 25 28 31 34 36
7 5 8 15 1 2 3 9 10 6 7 4 2 29 3 1 9 7 12 11 13 16 18 20 25 26 30 38 47 45 39 33 26 20 18 18 19 20 22 25 28 31 35 37
9 2 3 10 2 3 6 7 6 2 2 19 6 27 6 4 7 16 15 23 20 20 23 27 29 32 34 43 49 44 37 30 24 20 18 17 18 20 22 25 28 31 35 37
17 7 11 20 18 5 6 8 19 19 15 16 28 36 37 36 19 11 16 30 31 29 34 34 33 35 36 44 49 42 34 28 23 19 16 15 16 19 22 26 29 32 35 38
11 12 18 24 30 9 3 9 16 19 30 21 35 22 34 40 21 28 32 40 37 31 32 33 34 36 39 44 46 40 33 27 21 17 15 14 16 19 23 26 30 33 35 37
2 17 14 23 27 21 18 25 26 27 35 28 30 31 44 32 37 36 43 43 36 39 43 38 34 35 40 43 47 39 32 25 19 16 13 13 15 19 23 27 30 32 34 36
7 5 7 25 21 7 4 34 29 27 37 26 30 44 39 28 24 29 37 40 42 41 42 34 33 35 36 42 48 39 30 23 18 13 11 11 15 19 24 27 29 31 33 34
17 11 10 17 9 16 19 18 20 27 35 23 31 36 31 30 46 41 38 45 41 45 38 32 29 30 33 39 42 34 27 20 13 9 8 11 16 21 24 26 28 30 31 33
27 22 11 8 14 18 13 19 9 15 25 29 31 27 33 47 25 36 32 41 43 43 35 27 27 31 32 41 39 31 23 17 11 7 8 12 17 20 23 25 26 28 31 32
28 24 18 12 10 14 18 32 26 12 23 42 29 32 31 20 10 23 32 19 26 26 24 24 27 29 34 42 36 28 22 15 9 5 7 12 16 19 22 23 25 27 28 31
6 9 23 23 20 10 13 24 16 7 27 34 12 22 19 15 22 25 14 10 13 18 21 24 27 34 43 39 32 26 20 14 8 4 7 11 15 18 20 21 23 25 27 31
19 10 10 14 12 19 16 4 17 30 43 41 28 19 21 30 31 34 34 22 19 21 25 29 35 43 40 34 29 25 20 13 7 3 6 10 13 16 18 21 23 24 26 31
19 20 19 16 10 10 17 21 50 52 39 42 24 28 28 31 34 35 33 27 25 27 31 36 44 44 39 33 28 24 18 12 7 3 5 7 10 14 17 19 22 23 26 31
15 24 20 21 20 13 18 37 42 39 47 52 37 37 38 37 35 32 31 29 29 32 36 44 47 44 40 35 30 24 18 13 7 2 3 6 7 10 14 17 19 23 26 29
8 6 15 23 23 22 28 40 44 44 43 44 44 39 46 41 42 40 38 38 38 38 41 48 47 43 39 34 29 24 18 12 7 2 2 5 8 10 11 14 18 21 22 23
17 24 15 17 18 20 30 46 49 46 46 47 46 46 50 44 46 45 41 42 44 45 50 51 46 42 39 34 28 22 16 10 5 2 1 4 8 11 11 11 11 15 18 20
Wind_Direction
113 124 213 212 203 183 163 197 237 246 231 206 232 249 258 272 249 254 256 249 250 246 245 235 230 227 224 224 225 228 231 234 237 239 248 267 296 319 326 328 321 317 323 328
45 234 200 144 164 167 166 213 259 284 262 198 272 262 259 255 259 256 256 249 258 257 247 240 231 227 226 226 224 225 228 233 235 239 250 269 296 312 323 322 318 321 323 324
181 219 112 138 157 165 205 195 226 234 338 254 313 268 236 274 249 264 256 259 260 254 249 243 231 226 224 223 223 224 228 230 234 240 255 275 295 307 315 317 320 321 317 317
233 225 159 162 217 152 236 208 205 289 36 251 0 296 243 245 269 256 266 251 253 250 247 246 238 229 225 224 221 224 226 229 233 242 257 276 294 306 316 318 319 315 318 321
237 163 161 185 220 162 226 120 138 147 212 26 255 270 233 14 265 263 265 261 255 250 249 249 247 239 231 224 220 221 225 227 233 246 261 277 293 306 313 314 312 316 322 318
255 312 173 199 69 133 137 98 68 65 105 243 224 202 165 182 212 256 267 260 256 246 255 256 253 243 235 224 219 221 223 228 233 246 264 279 294 301 308 312 316 320 318 318
258 208 173 165 103 28 94 67 321 312 329 253 140 211 259 229 232 221 237 254 245 264 263 252 243 237 233 224 217 219 222 226 232 243 258 276 290 300 306 313 314 318 316 317
190 266 180 182 199 180 170 168 168 250 263 290 141 245 274 223 241 240 245 258 263 252 251 249 246 246 237 224 218 220 221 224 232 243 258 275 288 298 306 310 314 316 316 317
185 267 89 26 113 140 180 187 167 92 121 296 242 263 288 222 258 260 251 248 244 249 252 252 249 247 237 226 218 220 220 225 232 243 259 275 287 298 303 309 314 313 314 315
233 294 240 155 140 39 183 162 92 357 256 260 270 276 270 216 236 239 246 243 244 249 242 247 249 248 238 229 218 219 222 227 233 245 260 274 287 295 304 311 313 313 316 319
149 157 219 121 209 176 136 211 224 187 158 205 276 283 183 186 201 217 235 256 237 228 250 245 252 255 239 226 217 218 221 225 233 247 263 278 290 301 308 314 316 317 317 318
199 169 229 241 95 359 179 193 174 193 238 238 137 271 347 61 214 217 235 215 227 245 251 246 263 251 232 218 217 217 219 224 232 246 264 280 292 301 308 312 314 316 318 318
171 227 312 275 332 6 211 197 219 320 311 232 198 261 136 123 200 211 223 254 246 246 254 256 249 239 229 218 216 216 217 221 232 247 262 277 290 301 309 313 317 318 318 318
166 168 209 241 260 134 194 205 218 220 243 239 235 257 276 265 269 251 252 271 265 254 266 261 247 239 230 221 215 213 212 221 233 247 264 277 293 304 310 316 319 320 320 320
175 227 218 247 261 251 237 245 221 217 239 232 253 249 258 269 267 270 267 269 269 265 261 256 250 240 229 219 210 210 212 220 232 247 260 279 295 306 314 319 320 321 321 321
202 246 232 249 256 259 250 253 257 248 250 259 263 263 258 275 281 282 277 275 274 269 269 267 256 243 232 220 206 204 210 219 231 245 262 282 302 313 319 321 322 323 322 323
183 204 226 253 256 241 219 245 259 266 265 260 268 264 271 270 267 261 266 269 268 268 267 265 255 242 231 217 204 201 207 216 226 242 267 296 311 317 322 326 325 325 325 325
232 216 230 251 260 241 247 255 245 253 263 263 254 263 274 268 266 269 264 266 269 268 269 265 246 230 219 212 197 198 203 210 219 239 276 304 318 323 326 327 328 329 328 326
223 232 239 236 229 254 308 262 195 228 263 257 258 264 263 269 284 274 260 266 269 273 270 256 236 222 209 194 190 192 196 201 208 236 294 317 322 327 329 331 332 331 329 327
231 223 222 218 228 228 231 246 238 253 271 264 255 256 261 262 264 275 288 273 261 252 240 224 214 202 193 184 186 187 187 190 200 243 304 319 325 332 330 332 332 333 328 330
165 208 219 225 239 244 235 242 122 193 253 264 223 234 242 237 234 258 262 266 242 235 220 204 196 189 181 179 180 181 180 181 197 249 307 323 331 329 326 332 332 330 334 336
223 190 208 227 236 246 226 142 203 227 245 259 250 237 222 237 242 241 248 243 220 210 196 194 184 178 176 178 179 177 176 178 190 261 318 331 329 326 328 333 330 331 343 343
234 214 222 199 209 215 198 211 221 238 243 259 257 257 239 242 244 244 236 226 215 203 193 188 179 175 174 175 176 175 175 177 195 251 324 327 329 326 333 335 332 342 352 350
226 237 235 244 244 223 222 223 235 232 237 251 254 255 261 247 250 238 223 220 207 198 191 183 179 176 174 174 175 178 177 184 197 221 304 316 325 331 338 336 341 351 356 354
234 319 249 253 253 256 255 245 246 253 254 254 256 255 252 247 245 237 223 214 205 198 190 185 182 178 177 175 177 179 184 188 192 218 299 327 335 340 348 345 352 358 358 357
241 242 234 241 237 240 249 254 257 256 252 255 258 254 254 248 250 239 223 214 204 194 187 184 183 182 177 176 178 181 184 187 198 224 316 337 338 340 350 2 19 5 358 356